sat.trackr.live / text

‹ back to catalog

VRSS-1

NORAD 38782 · 2012-052A

PAYLOAD ACTIVE UNKNOWN

§ Identity

Operator
Country
VENZ
Launch date
2012-09-29
Launch site
JSC
Launch vehicle
Mass (kg)
RCS (m²)
2.37

External: N2YO · Heavens-Above · Gunter

§ Orbital elements

Epoch: 2026-09-20T04:51:57.521376Z

Period
97.29 min
Inclination
97.6280°
Eccentricity
0.0016301
Mean motion
14.80162583 rev/d
Perigee alt
617.4 km
Apogee alt
640.2 km
Semi-major
7,006.9 km
B*
4.4586e-5
RAAN
234.7339°
Arg perigee
289.1116°
Mean anomaly
70.8332°
Rev number
75,366

§ Raw data

VRSS-11 38782U 12052A   26263.20274909  .00000290  00000+0  44586-4 0  99912 38782  97.6280 234.7339 0016301 289.1116  70.8332 14.80162583753660

JSON: /api/v1/satellites/38782 · /tle

For live sub-satellite position, see the globe view (requires WebGL).

§ Visibility from observer

Set your observer location to see the next 7 days of passes ≥ 10°. The values pass through the URL so the page stays shareable.

No JS? Fill the form by hand. The geolocation button needs JavaScript.

§ Radio — SatNOGS DB

ModeDescriptionDownlinkUplink
BPSK S-band telemetry 2.244 GHz

1 transmitter · refreshed weekly from db.satnogs.org